Naples, Italy

3:41 PM CEST on August 16, 2017 (GMT +0200)
Capodichino Mil

Weather History for LIRN - April, 2013

Change the Weather History Date:

Wednesday, April 3, 2013

  Actual Average Record
Temperature  
Mean Temperature 56 °F -  
Max Temperature 60 °F 66 °F 76 °F (2016)
Min Temperature 51 °F 48 °F 35 °F (2007)
Degree Days  
Heating Degree Days 10    
Growing Degree Days 6 (Base 50)    
Moisture  
Dew Point 49 °F    
Average Humidity 77    
Maximum Humidity 94    
Minimum Humidity 59    
Precipitation  
Precipitation 0.00 in 0.10 in - ()
Sea Level Pressure  
Sea Level Pressure 29.66 in    
Wind  
Wind Speed 7 mph ()    
Max Wind Speed 18 mph    
Max Gust Speed 26 mph    
Visibility 5.9 miles    
Events Rain    
Averages and records for this station are not official NWS values.
T = Trace of Precipitation, MM = Missing Value Source: Averaged Metar Reports

Daily Weather History Graph

Daily Weather History Graph

Search for Another Location

Airport or City:

Trip Planner

Search our weather history database for the weather conditions in past years. The results will help you decide how hot, cold, wet, or windy it might be!

Date:

Astronomy

Apr. 03, 2013 Rise Set
Actual Time 6:43 AM CEST 7:29 PM CEST
Civil Twilight 6:15 AM CEST 7:57 PM CEST
Nautical Twilight 5:42 AM CEST 8:30 PM CEST
Astronomical Twilight 5:08 AM CEST 9:04 PM CEST
Moon 2:12 AM CEST (4/3) 12:20 PM CEST (4/3)
Length of Visible Light 13h 42m
Length of Day
12h 46m
Waning Gibbous, 47% of the Moon is Illuminated
Apr 3
Waning Gibbous
Apr 10
New
Apr 18
First Quarter
Apr 25
Full
May 2
Last Quarter

Hourly Weather History & Observations

Time (CEST) Temp. Dew Point Humidity Pressure Visibility Wind Dir Wind Speed Gust Speed Precip Events Conditions
12:20 AM 51.8 °F 48.2 °F 88% 29.53 in 6.2 mi WNW 9.2 mph - N/A   Scattered Clouds
12:50 AM 51.8 °F 48.2 °F 88% 29.56 in 6.2 mi NW 4.6 mph - N/A   Scattered Clouds
1:50 AM 51.8 °F 48.2 °F 88% 29.56 in 6.2 mi Variable 2.3 mph - N/A   Scattered Clouds
2:20 AM 51.8 °F 48.2 °F 88% 29.56 in 6.2 mi Calm Calm - N/A   Scattered Clouds
2:50 AM 53.6 °F 50.0 °F 88% 29.56 in 6.2 mi North 3.5 mph - N/A   Scattered Clouds
3:20 AM 53.6 °F 50.0 °F 88% 29.56 in 6.2 mi Variable 2.3 mph - N/A   Scattered Clouds
3:50 AM - - N/A% - 5.0 mi Calm Calm - N/A Rain Light Rain
4:20 AM 51.8 °F 48.2 °F 88% 29.56 in 3.1 mi WNW 10.4 mph - N/A Rain Light Rain
4:50 AM 51.8 °F 50.0 °F 94% 29.56 in 3.1 mi West 10.4 mph - N/A Rain Light Rain
5:20 AM 51.8 °F 50.0 °F 94% 29.56 in 3.1 mi Variable 1.2 mph - N/A Rain Light Rain
5:50 AM 51.8 °F 50.0 °F 94% 29.59 in 5.0 mi SSW 3.5 mph - N/A Rain Light Rain
6:20 AM 51.8 °F 48.2 °F 88% 29.59 in 5.0 mi WNW 4.6 mph - N/A Rain Light Rain
6:50 AM 51.8 °F 48.2 °F 88% 29.59 in 5.0 mi West 5.8 mph - N/A Rain Light Rain
7:20 AM 53.6 °F 48.2 °F 82% 29.59 in 6.2 mi WNW 5.8 mph - N/A   Scattered Clouds
7:50 AM 53.6 °F 50.0 °F 88% 29.59 in 6.2 mi WNW 4.6 mph - N/A   Scattered Clouds
8:20 AM 55.4 °F 50.0 °F 82% 29.62 in 6.2 mi WNW 4.6 mph - N/A   Scattered Clouds
8:50 AM 55.4 °F 48.2 °F 77% 29.62 in 6.2 mi NW 6.9 mph - N/A   Partly Cloudy
9:20 AM 55.4 °F 48.2 °F 77% 29.62 in 6.2 mi WNW 9.2 mph - N/A   Scattered Clouds
9:50 AM 57.2 °F 48.2 °F 72% 29.62 in 6.2 mi NW 8.1 mph - N/A   Scattered Clouds
10:20 AM 57.2 °F 50.0 °F 77% 29.65 in 6.2 mi WNW 6.9 mph - N/A Rain Light Rain
11:20 AM 59.0 °F 50.0 °F 72% 29.65 in 6.2 mi West 11.5 mph - N/A   Scattered Clouds
11:50 AM 59.0 °F 50.0 °F 72% 29.65 in 6.2 mi West 13.8 mph - N/A   Scattered Clouds
12:20 PM 59.0 °F 48.2 °F 67% 29.65 in 6.2 mi West 13.8 mph - N/A   Scattered Clouds
12:50 PM 60.8 °F 51.8 °F 72% 29.65 in 6.2 mi West 16.1 mph - N/A   Scattered Clouds
1:20 PM 60.8 °F 46.4 °F 59% 29.65 in 6.2 mi West 16.1 mph - N/A   Scattered Clouds
1:50 PM 59.0 °F 48.2 °F 67% 29.65 in 6.2 mi West 18.4 mph - N/A   Scattered Clouds
2:20 PM 60.8 °F 48.2 °F 63% 29.68 in 6.2 mi West 16.1 mph - N/A   Scattered Clouds
2:50 PM 59.0 °F 46.4 °F 63% 29.68 in 6.2 mi West 16.1 mph - N/A   Scattered Clouds
3:20 PM 60.8 °F 48.2 °F 63% 29.68 in 6.2 mi West 17.3 mph - N/A   Scattered Clouds
3:50 PM 60.8 °F 48.2 °F 63% 29.68 in 6.2 mi West 15.0 mph - N/A   Scattered Clouds
4:20 PM - - N/A% - 6.2 mi West 15.0 mph 26.5 mph N/A   Partly Cloudy
4:50 PM 60.8 °F 48.2 °F 63% 29.68 in 6.2 mi West 13.8 mph - N/A   Scattered Clouds
5:20 PM 60.8 °F 46.4 °F 59% 29.68 in 6.2 mi West 17.3 mph - N/A   Partly Cloudy
5:50 PM 60.8 °F 46.4 °F 59% 29.68 in 6.2 mi West 11.5 mph - N/A   Partly Cloudy
6:20 PM 59.0 °F 48.2 °F 67% 29.71 in 6.2 mi West 13.8 mph - N/A   Partly Cloudy
6:50 PM 59.0 °F 48.2 °F 67% 29.71 in 6.2 mi WSW 11.5 mph - N/A   Partly Cloudy
7:20 PM 57.2 °F 48.2 °F 72% 29.71 in 6.2 mi WSW 11.5 mph - N/A   Partly Cloudy
7:50 PM 55.4 °F 48.2 °F 77% 29.74 in 6.2 mi WSW 8.1 mph - N/A   Partly Cloudy
8:20 PM 57.2 °F 48.2 °F 72% 29.74 in 6.2 mi Variable 2.3 mph - N/A   Partly Cloudy
8:50 PM 55.4 °F 50.0 °F 82% 29.77 in 6.2 mi Variable 2.3 mph - N/A   Partly Cloudy
9:20 PM 55.4 °F 48.2 °F 77% 29.77 in 6.2 mi Variable 2.3 mph - N/A   Partly Cloudy
9:50 PM 55.4 °F 48.2 °F 77% 29.77 in 6.2 mi WSW 6.9 mph - N/A   Partly Cloudy
10:20 PM 53.6 °F 48.2 °F 82% 29.77 in 6.2 mi Calm Calm - N/A   Partly Cloudy
10:50 PM 55.4 °F 50.0 °F 82% 29.80 in 6.2 mi SW 4.6 mph - N/A   Partly Cloudy
11:20 PM 55.4 °F 50.0 °F 82% 29.80 in 6.2 mi Variable 2.3 mph - N/A   Partly Cloudy
11:50 PM 55.4 °F 50.0 °F 82% 29.80 in 6.2 mi Variable 1.2 mph - N/A   Scattered Clouds